Location: Newark
(44.3299°N, 23.7597°E)
Time: 21:12:23
(UTC+00:00)

X-37B - Visible Passes

Search period start: 22 January 2022 00:00
Search period end: 01 February 2022 00:00
Orbit: 334 x 337 km, 45.0° (Epoch: 11 January)

Date Brightness Start Highest point End Pass type
(mag) Time Alt. Az. Time Alt. Az. Time Alt. Az.
25 Jan 3.1 17:00:01 10° SSE 17:00:11 10° SSE 17:00:11 10° SSE visible
26 Jan 2.6 17:18:48 10° SSW 17:20:01 19° S 17:20:01 19° S visible
27 Jan 2.8 16:05:30 10° SSE 16:06:29 11° SE 16:07:29 10° ESE visible
27 Jan 2.9 17:38:44 10° WSW 17:39:47 20° SW 17:39:47 20° SW visible
28 Jan 1.8 16:24:14 10° SSW 16:26:38 25° SSE 16:28:15 15° ESE visible
28 Jan 3.7 17:59:04 10° WSW 17:59:29 13° WSW 17:59:29 13° WSW visible
29 Jan 0.7 16:44:10 10° WSW 16:46:56 51° SSE 16:47:54 32° ESE visible
30 Jan 0.1 17:04:30 10° WSW 17:07:20 88° S 17:07:32 76° E visible
31 Jan 1.3 17:24:58 10° W 17:27:08 46° WNW 17:27:08 46° WNW visible
